Volver al catálogo

SL-16 DEB

LostLEO
NORAD 42246·DEBRIS·🇷🇺 Russia

Lanzado Mar 26, 1993 desde Baikonur Cosmodrome

Loading…

Próximos Pases (próximas 24 horas)

TLE

ObsoletoSource: Space-Track

Época: May 8, 2024, 14:48 UTC

1 42246U 93016DA  24129.61691937  .00025194  00000-0  70294-2 0  9992
2 42246  70.9456 111.8077 0096516 272.2374  86.7715 14.43454396544729

Sigue SL-16 DEB en tiempo real con AllMySat

Download on the App Store